H1 CPF  2 CNE 2023  9 18  0 261 01 swot            NONE
H2  2217301 4381    54754 2023   9 18  0  0  0 2023   9 22  0  0  0  180 1 1   0 0 0  1
H9
10 0 60205  21600.000000  0        398455.071       2399882.788      -6860037.509
10 0 60205  21780.000000  0       -582542.860       1564123.461      -7084725.306
10 0 60205  21960.000000  0      -1566552.874        702426.796      -7073305.668
10 0 60205  22140.000000  0      -2521340.309       -157050.033      -6826158.304
10 0 60205  22320.000000  0      -3414875.576       -987065.108      -6351424.760
10 0 60205  22500.000000  0      -4216395.709      -1762140.221      -5664766.744
10 0 60205  22680.000000  0      -4897465.308      -2459334.464      -4788895.583
10 0 60205  22860.000000  0      -5433002.847      -3058925.499      -3752872.454
10 0 60205  23040.000000  0      -5802232.583      -3544976.405      -2591187.663
10 0 60205  23220.000000  0      -5989520.528      -3905766.017      -1342638.292
10 0 60205  23400.000000  0      -5985052.811      -4134065.984        -49036.724
10 0 60205  23580.000000  0      -5785320.386      -4227252.721       1246207.001
10 0 60205  23760.000000  0      -5393379.475      -4187248.814       2499577.980
10 0 60205  23940.000000  0      -4818866.441      -4020294.276       3668960.188
10 0 60205  24120.000000  0      -4077767.266      -3736563.118       4715084.932
10 0 60205  24300.000000  0      -3191952.467      -3349647.169       5602867.542
10 0 60205  24480.000000  0      -2188500.825      -2875937.255       6302581.222
10 0 60205  24660.000000  0      -1098841.343      -2333935.521       6790836.858
10 0 60205  24840.000000  0         42259.649      -1743526.854       7051340.631
10 0 60205  25020.000000  0       1197823.401      -1125241.078       7075405.785
10 0 60205  25200.000000  0       2329857.751       -499536.837       6862225.151
10 0 60205  25380.000000  0       3400609.032        113877.339       6418901.555
10 0 60205  25560.000000  0       4373831.432        696665.676       5760226.413
10 0 60205  25740.000000  0       5216031.488       1232412.470       4908208.323
10 0 60205  25920.000000  0       5897648.796       1707078.736       3891366.227
10 0 60205  26100.000000  0       6394135.653       2109360.063       2743795.518
10 0 60205  26280.000000  0       6686882.516       2430933.243       1504027.905
10 0 60205  26460.000000  0       6763949.409       2666583.530        213723.232
10 0 60205  26640.000000  0       6620562.737       2814209.225      -1083763.492
10 0 60205  26820.000000  0       6259348.439       2874704.323      -2344878.623
10 0 60205  27000.000000  0       5690295.208       2851731.072      -3527366.065
10 0 60205  27180.000000  0       4930448.242       2751396.635      -4591706.421
10 0 60205  27360.000000  0       4003349.963       2581852.698      -5502440.060
10 0 60205  27540.000000  0       2938258.803       2352842.799      -6229325.283
10 0 60205  27720.000000  0       1769185.049       2075224.342      -6748302.187
10 0 60205  27900.000000  0        533780.441       1760487.825      -7042239.088
10 0 60205  28080.000000  0       -727876.845       1420295.726      -7101452.749
10 0 60205  28260.000000  0      -1974571.356       1066056.184      -6923998.652
10 0 60205  28440.000000  0      -3165277.302        708544.440      -6515724.255
10 0 60205  28620.000000  0      -4260486.981        357584.377      -5890093.082
10 0 60205  28800.000000  0      -5223516.463         21794.968      -5067781.817
10 0 60205  28980.000000  0      -6021750.168       -291594.549      -4076047.766
10 0 60205  29160.000000  0      -6627784.522       -576858.968      -2947874.715
10 0 60205  29340.000000  0      -7020423.162       -829821.232      -1720908.664
10 0 60205  29520.000000  0      -7185476.781      -1047827.229       -436211.819
10 0 60205  29700.000000  0      -7116323.929      -1229653.143        863126.303
10 0 60205  29880.000000  0      -6814200.670      -1375352.651       2133464.391
10 0 60205  30060.000000  0      -6288203.604      -1486056.702       3332114.214
10 0 60205  30240.000000  0      -5555001.574      -1563737.437       4418812.684
10 0 60205  30420.000000  0      -4638268.014      -1610950.353       5357099.245
10 0 60205  30600.000000  0      -3567866.681      -1630571.632       6115541.025
10 0 60205  30780.000000  0      -2378833.736      -1625548.009       6668772.858
10 0 60205  30960.000000  0      -1110191.936      -1598671.889       6998323.638
10 0 60205  31140.000000  0        196358.236      -1552394.529       7093205.053
10 0 60205  31320.000000  0       1497820.288      -1488689.972       6950252.545
10 0 60205  31500.000000  0       2751316.280      -1408974.975       6574224.925
10 0 60205  31680.000000  0       3915504.068      -1314086.246       5977659.935
10 0 60205  31860.000000  0       4951958.009      -1204315.147       5180480.428
10 0 60205  32040.000000  0       5826466.412      -1079495.802       4209355.606
10 0 60205  32220.000000  0       6510202.824       -939141.479       3096831.633
10 0 60205  32400.000000  0       6980726.808       -782619.555       1880250.142
10 0 60205  32580.000000  0       7222768.486       -609350.459        600485.467
10 0 60205  32760.000000  0       7228759.731       -419019.691       -699454.742
10 0 60205  32940.000000  0       6999083.768       -211788.549      -1975914.597
10 0 60205  33120.000000  0       6542027.982         11510.429      -3186095.330
10 0 60205  33300.000000  0       5873448.077        249205.182      -4289517.315
10 0 60205  33480.000000  0       5016164.546        498654.674      -5249382.686
10 0 60205  33660.000000  0       3999123.573        756168.226      -6033786.685
10 0 60205  33840.000000  0       2856368.786       1016979.584      -6616741.408
10 0 60205  34020.000000  0       1625866.919       1275280.297      -6978988.927
10 0 60205  34200.000000  0        348234.434       1524315.935      -7108588.404
10 0 60205  34380.000000  0       -934595.440       1756546.173      -7001275.822
10 0 60205  34560.000000  0      -2180732.471       1963866.753      -6660590.382
10 0 60205  34740.000000  0      -3349677.069       2137887.368      -6097764.820
10 0 60205  34920.000000  0      -4403621.973       2270260.551      -5331388.464
10 0 60205  35100.000000  0      -5308682.511       2353050.685      -4386843.232
10 0 60205  35280.000000  0      -6036014.759       2379126.185      -3295511.608
10 0 60205  35460.000000  0      -6562780.539       2342556.719      -2093773.839
10 0 60205  35640.000000  0      -6872921.459       2238995.363       -821814.736
10 0 60205  35820.000000  0      -6957701.706       2066022.686        477726.845
10 0 60205  36000.000000  0      -6815985.778       1823429.971       1761216.401
10 0 60205  36180.000000  0      -6454235.207       1513425.934       2985526.972
10 0 60205  36360.000000  0      -5886226.233       1140752.865       4109527.147
10 0 60205  36540.000000  0      -5132500.558        712701.619       5095491.316
10 0 60205  36720.000000  0      -4219581.426        239023.659       5910374.652
10 0 60205  36900.000000  0      -3178996.850       -268259.091       6526911.744
10 0 60205  37080.000000  0      -2046151.398       -795141.789       6924508.084
10 0 60205  37260.000000  0       -859092.020      -1326014.091       7089901.005
10 0 60205  37440.000000  0        342786.301      -1844118.698       7017577.437
10 0 60205  37620.000000  0       1520052.742      -2332080.050       6709944.658
10 0 60205  37800.000000  0       2634534.960      -2772489.322       6177255.462
10 0 60205  37980.000000  0       3650564.182      -3148529.471       5437288.390
10 0 60205  38160.000000  0       4536136.659      -3444620.162       4514783.152
10 0 60205  38340.000000  0       5263952.692      -3647058.578       3440639.346
10 0 60205  38520.000000  0       5812296.567      -3744628.819       2250895.424
10 0 60205  38700.000000  0       6165720.040      -3729147.313        985514.337
10 0 60205  38880.000000  0       6315497.702      -3595917.824       -312980.208
10 0 60205  39060.000000  0       6259836.716      -3344069.745      -1600967.878
10 0 60205  39240.000000  0       6003827.348      -2976757.417      -2835238.886
10 0 60205  39420.000000  0       5559138.511      -2501209.065      -3974475.718
10 0 60205  39600.000000  0       4943481.544      -1928624.289      -4980649.922
10 0 60205  39780.000000  0       4179873.747      -1273924.106      -5820283.396
10 0 60205  39960.000000  0       3295740.503       -555363.323      -6465532.033
10 0 60205  40140.000000  0       2321900.437        205980.148      -6895063.480
10 0 60205  40320.000000  0       1291474.985        986820.962      -7094711.499
10 0 60205  40500.000000  0        238763.815       1762368.109      -7057902.375
10 0 60205  40680.000000  0       -801884.072       2507098.780      -6785851.649
10 0 60205  40860.000000  0      -1797174.978       3195586.464      -6287527.604
10 0 60205  41040.000000  0      -2715921.993       3803360.810      -5579381.122
10 0 60205  41220.000000  0      -3530017.539       4307777.900      -4684847.325
10 0 60205  41400.000000  0      -4215304.354       4688873.943      -3633619.713
10 0 60205  41580.000000  0      -4752313.292       4930164.983      -2460705.659
10 0 60205  41760.000000  0      -5126842.080       5019359.515      -1205288.588
10 0 60205  41940.000000  0      -5330352.888       4948949.369         90577.029
10 0 60205  42120.000000  0      -5360164.392       4716642.079       1383396.468
10 0 60205  42300.000000  0      -5219426.005       4325604.820       2629733.569
10 0 60205  42480.000000  0      -4916873.444       3784504.787       3787710.864
10 0 60205  42660.000000  0      -4466383.995       3107345.097       4818448.037
10 0 60205  42840.000000  0      -3886356.666       2313099.170       5687383.148
10 0 60205  43020.000000  0      -3198950.333       1425162.564       6365427.826
99